Time,TemperatureF,DewpointF,PressureIn,WindDirection,WindDirectionDegrees,WindSpeedMPH,WindSpeedGustMPH,Humidity,HourlyPrecipIn,Conditions,Clouds,dailyrainin,SoftwareType,DateUTC
2013-08-23 00:13:00,74.0,71.0,30.03,SW,236,1.0,2.0,91,0.00,,,0.01,,2013-08-23 04:13:00,
2013-08-23 00:24:00,74.0,72.0,30.03,WSW,248,0.0,2.0,92,0.00,,,0.01,,2013-08-23 04:24:00,
2013-08-23 00:43:00,73.0,71.0,30.03,West,259,0.0,0.0,93,0.00,,,0.01,,2013-08-23 04:43:00,
2013-08-23 00:54:00,73.0,71.0,30.03,West,259,0.0,1.0,94,0.00,,,0.01,,2013-08-23 04:54:00,
2013-08-23 01:13:00,73.0,71.0,30.03,West,261,1.0,4.0,95,0.00,,,0.01,,2013-08-23 05:13:00,
2013-08-23 01:22:00,73.0,71.0,30.02,WSW,248,1.0,3.0,95,0.00,,,0.01,,2013-08-23 05:22:00,
2013-08-23 01:53:00,73.0,71.0,30.01,West,281,0.0,3.0,95,0.00,,,0.01,,2013-08-23 05:53:00,
2013-08-23 02:12:00,73.0,72.0,30.01,NW,325,0.0,1.0,96,0.00,,,0.01,,2013-08-23 06:12:00,
2013-08-23 02:22:00,73.0,72.0,30.00,NNW,336,0.0,1.0,96,0.00,,,0.01,,2013-08-23 06:22:00,
2013-08-23 02:42:00,73.0,72.0,29.99,SW,236,0.0,2.0,97,0.00,,,0.01,,2013-08-23 06:42:00,
2013-08-23 02:52:00,73.0,72.0,29.99,NNW,328,1.0,2.0,97,0.00,,,0.01,,2013-08-23 06:52:00,
2013-08-23 03:12:00,73.0,72.0,29.98,NNW,329,0.0,1.0,97,0.00,,,0.01,,2013-08-23 07:12:00,
2013-08-23 03:22:00,73.0,72.0,29.98,West,267,0.0,2.0,97,0.00,,,0.01,,2013-08-23 07:22:00,
2013-08-23 03:53:00,72.0,71.0,29.98,West,266,0.0,0.0,97,0.00,,,0.01,,2013-08-23 07:53:00,
2013-08-23 04:13:00,72.0,71.0,29.98,SW,222,0.0,0.0,97,0.00,,,0.01,,2013-08-23 08:13:00,
2013-08-23 04:22:00,71.0,70.0,29.98,SW,224,0.0,2.0,98,0.00,,,0.01,,2013-08-23 08:22:00,
2013-08-23 04:52:00,71.0,70.0,29.98,SSW,205,2.0,3.0,98,0.00,,,0.01,,2013-08-23 08:52:00,
2013-08-23 05:12:00,71.0,70.0,29.98,SW,223,0.0,1.0,98,0.00,,,0.01,,2013-08-23 09:12:00,
2013-08-23 05:21:00,70.0,69.0,29.98,SW,223,0.0,0.0,98,0.00,,,0.01,,2013-08-23 09:21:00,
2013-08-23 05:53:00,70.0,69.0,29.98,SW,224,0.0,0.0,98,0.00,,,0.01,,2013-08-23 09:53:00,
2013-08-23 06:13:00,70.0,69.0,29.98,SW,224,0.0,1.0,98,0.00,,,0.01,,2013-08-23 10:13:00,
2013-08-23 06:23:00,70.0,69.0,29.99,SW,224,1.0,1.0,98,0.00,,,0.01,,2013-08-23 10:23:00,
2013-08-23 06:42:00,70.0,70.0,30.00,SW,225,1.0,2.0,99,0.00,,,0.01,,2013-08-23 10:42:00,
2013-08-23 06:53:00,70.0,70.0,30.01,SW,215,0.0,0.0,99,0.00,,,0.01,,2013-08-23 10:53:00,
2013-08-23 07:11:00,70.0,70.0,30.01,SSW,211,0.0,0.0,99,0.00,,,0.01,,2013-08-23 11:11:00,
2013-08-23 07:22:00,70.0,70.0,30.01,WNW,287,0.0,1.0,99,0.00,,,0.01,,2013-08-23 11:22:00,
2013-08-23 07:42:00,70.0,70.0,30.02,SW,227,1.0,2.0,99,0.00,,,0.01,,2013-08-23 11:42:00,
2013-08-23 07:53:00,70.0,69.0,30.01,WNW,283,1.0,3.0,98,0.00,,,0.01,,2013-08-23 11:53:00,
2013-08-23 08:11:00,71.0,70.0,30.02,WNW,284,1.0,5.0,98,0.00,,,0.01,,2013-08-23 12:11:00,
2013-08-23 08:22:00,72.0,71.0,30.02,NW,305,2.0,3.0,97,0.00,,,0.00,,2013-08-23 12:22:00,
2013-08-23 08:42:00,73.0,71.0,30.03,West,270,2.0,4.0,94,0.00,,,0.00,,2013-08-23 12:42:00,
2013-08-23 08:52:00,74.0,71.0,30.03,NW,309,2.0,4.0,91,0.00,,,0.00,,2013-08-23 12:52:00,
2013-08-23 09:12:00,75.0,72.0,30.02,West,277,1.0,6.0,89,0.00,,,0.00,,2013-08-23 13:12:00,
2013-08-23 09:22:00,75.0,71.0,30.02,WNW,293,2.0,6.0,86,0.00,,,0.00,,2013-08-23 13:22:00,
2013-08-23 09:42:00,77.0,72.0,30.02,NW,306,2.0,5.0,85,0.00,,,0.00,,2013-08-23 13:42:00,
2013-08-23 09:53:00,78.0,72.0,30.02,WNW,293,2.0,4.0,83,0.00,,,0.00,,2013-08-23 13:53:00,
2013-08-23 10:12:00,78.0,72.0,30.02,NW,316,2.0,4.0,82,0.00,,,0.00,,2013-08-23 14:12:00,
2013-08-23 10:22:00,80.0,74.0,30.02,West,276,1.0,4.0,81,0.00,,,0.00,,2013-08-23 14:22:00,
2013-08-23 10:42:00,81.0,73.0,30.02,SW,228,2.0,4.0,78,0.00,,,0.00,,2013-08-23 14:42:00,
2013-08-23 10:52:00,82.0,74.0,30.03,WSW,242,2.0,5.0,78,0.00,,,0.00,,2013-08-23 14:52:00,
2013-08-23 11:11:00,81.0,74.0,30.03,WSW,245,2.0,5.0,79,0.00,,,0.00,,2013-08-23 15:11:00,
2013-08-23 11:22:00,81.0,74.0,30.03,SW,215,2.0,5.0,79,0.00,,,0.00,,2013-08-23 15:22:00,
2013-08-23 11:44:00,82.0,74.0,30.03,NNW,338,2.0,3.0,78,0.00,,,0.00,,2013-08-23 15:44:00,
2013-08-23 11:54:00,82.0,73.0,30.03,WSW,244,2.0,4.0,75,0.00,,,0.00,,2013-08-23 15:54:00,
2013-08-23 12:13:00,83.0,74.0,30.03,NW,304,1.0,3.0,75,0.00,,,0.00,,2013-08-23 16:13:00,
2013-08-23 12:24:00,83.0,75.0,30.02,WNW,298,2.0,4.0,76,0.00,,,0.00,,2013-08-23 16:24:00,
2013-08-23 12:42:00,83.0,74.0,30.02,West,278,2.0,5.0,75,0.00,,,0.00,,2013-08-23 16:42:00,
2013-08-23 12:53:00,84.0,75.0,30.02,NNW,328,2.0,4.0,74,0.00,,,0.00,,2013-08-23 16:53:00,
2013-08-23 13:13:00,85.0,73.0,30.01,WNW,297,2.0,5.0,68,0.00,,,0.00,,2013-08-23 17:13:00,
2013-08-23 13:24:00,86.0,75.0,30.01,SW,229,1.0,4.0,69,0.00,,,0.00,,2013-08-23 17:24:00,
2013-08-23 13:43:00,86.0,75.0,30.01,WNW,297,2.0,6.0,70,0.00,,,0.00,,2013-08-23 17:43:00,
2013-08-23 13:54:00,87.0,73.0,30.00,SW,221,3.0,8.0,64,0.00,,,0.00,,2013-08-23 17:54:00,
2013-08-23 14:12:00,87.0,75.0,30.00,WSW,250,3.0,5.0,67,0.00,,,0.00,,2013-08-23 18:12:00,
2013-08-23 14:22:00,88.0,75.0,29.99,NNW,335,3.0,6.0,65,0.00,,,0.00,,2013-08-23 18:22:00,
2013-08-23 14:52:00,88.0,74.0,29.98,SW,221,3.0,7.0,64,0.00,,,0.00,,2013-08-23 18:52:00,
2013-08-23 15:12:00,87.0,74.0,29.98,West,274,2.0,4.0,65,0.00,,,0.00,,2013-08-23 19:12:00,
2013-08-23 15:22:00,87.0,76.0,29.97,SW,221,3.0,5.0,69,0.00,,,0.00,,2013-08-23 19:22:00,
2013-08-23 15:42:00,88.0,74.0,29.96,NW,317,2.0,7.0,63,0.00,,,0.00,,2013-08-23 19:42:00,
2013-08-23 15:52:00,88.0,75.0,29.96,WNW,290,2.0,6.0,65,0.00,,,0.00,,2013-08-23 19:52:00,
2013-08-23 16:12:00,88.0,73.0,29.95,SW,215,2.0,8.0,62,0.00,,,0.00,,2013-08-23 20:12:00,
2013-08-23 16:22:00,87.0,73.0,29.95,WSW,248,1.0,6.0,64,0.00,,,0.00,,2013-08-23 20:22:00,
2013-08-23 16:42:00,86.0,74.0,29.95,West,269,2.0,4.0,68,0.00,,,0.00,,2013-08-23 20:42:00,
2013-08-23 16:52:00,85.0,74.0,29.95,West,260,1.0,4.0,69,0.00,,,0.00,,2013-08-23 20:52:00,
2013-08-23 17:11:00,85.0,75.0,29.95,West,266,0.0,3.0,72,0.00,,,0.00,,2013-08-23 21:11:00,
2013-08-23 17:22:00,84.0,76.0,29.94,SW,214,2.0,6.0,76,0.00,,,0.00,,2013-08-23 21:22:00,
2013-08-23 17:44:00,83.0,75.0,29.94,West,277,1.0,5.0,78,0.00,,,0.00,,2013-08-23 21:44:00,
2013-08-23 17:54:00,82.0,75.0,29.94,West,276,1.0,3.0,79,0.00,,,0.00,,2013-08-23 21:54:00,
2013-08-23 18:13:00,83.0,75.0,29.94,WSW,246,2.0,4.0,77,0.00,,,0.00,,2013-08-23 22:13:00,
2013-08-23 18:24:00,83.0,76.0,29.95,West,274,0.0,4.0,79,0.00,,,0.00,,2013-08-23 22:24:00,
2013-08-23 18:43:00,83.0,76.0,29.96,West,263,0.0,2.0,79,0.00,,,0.00,,2013-08-23 22:43:00,
2013-08-23 18:53:00,83.0,76.0,29.96,West,265,1.0,2.0,79,0.00,,,0.00,,2013-08-23 22:53:00,
2013-08-23 19:12:00,82.0,75.0,29.96,West,262,0.0,2.0,80,0.00,,,0.00,,2013-08-23 23:12:00,
2013-08-23 19:22:00,81.0,75.0,29.96,WSW,243,0.0,1.0,83,0.00,,,0.00,,2013-08-23 23:22:00,
2013-08-23 19:43:00,80.0,75.0,29.97,WSW,243,0.0,0.0,85,0.00,,,0.00,,2013-08-23 23:43:00,
2013-08-23 19:54:00,79.0,74.0,29.98,WSW,245,0.0,1.0,86,0.00,,,0.00,,2013-08-23 23:54:00,
2013-08-23 20:11:00,79.0,75.0,29.98,WSW,245,0.0,0.0,87,0.00,,,0.00,,2013-08-24 00:11:00,
2013-08-23 20:22:00,78.0,74.0,29.98,WSW,245,0.0,0.0,89,0.00,,,0.00,,2013-08-24 00:22:00,
2013-08-23 20:43:00,77.0,74.0,29.98,NW,316,0.0,2.0,90,0.00,,,0.00,,2013-08-24 00:43:00,
2013-08-23 20:53:00,78.0,74.0,30.00,NNE,30,1.0,2.0,89,0.00,,,0.00,,2013-08-24 00:53:00,
2013-08-23 21:11:00,78.0,71.0,30.00,NNE,22,5.0,11.0,79,0.00,,,0.00,,2013-08-24 01:11:00,
2013-08-23 21:22:00,77.0,70.0,30.01,NNE,30,3.0,10.0,79,0.00,,,0.00,,2013-08-24 01:22:00,
2013-08-23 21:42:00,76.0,70.0,30.03,NNE,20,5.0,10.0,81,0.00,,,0.00,,2013-08-24 01:42:00,
2013-08-23 21:53:00,75.0,70.0,30.03,NNE,32,6.0,10.0,84,0.00,,,0.00,,2013-08-24 01:53:00,
2013-08-23 22:12:00,74.0,70.0,30.04,NNE,27,4.0,10.0,86,0.00,,,0.00,,2013-08-24 02:12:00,
2013-08-23 22:22:00,74.0,70.0,30.03,ENE,60,5.0,10.0,88,0.00,,,0.00,,2013-08-24 02:22:00,
2013-08-23 22:42:00,74.0,71.0,30.04,NNE,32,3.0,8.0,89,0.00,,,0.00,,2013-08-24 02:42:00,
2013-08-23 22:52:00,74.0,71.0,30.04,NNW,330,4.0,8.0,89,0.00,,,0.00,,2013-08-24 02:52:00,
2013-08-23 23:12:00,74.0,71.0,30.05,NNW,330,3.0,7.0,89,0.00,,,0.00,,2013-08-24 03:12:00,
2013-08-23 23:22:00,74.0,71.0,30.05,North,358,4.0,7.0,90,0.00,,,0.00,,2013-08-24 03:22:00,
2013-08-23 23:44:00,74.0,71.0,30.05,ENE,61,6.0,10.0,90,0.00,,,0.00,,2013-08-24 03:44:00,
2013-08-23 23:55:00,72.0,70.0,30.06,NE,39,6.0,12.0,92,0.00,,,0.00,,2013-08-24 03:55:00,